Weather History for KLGA - May, 2013

Change the Weather History Date:

Wednesday, May 8, 2013

  Actual Average Record
Temperature  
Mean Temperature 60 °F 60 °F  
Max Temperature 65 °F 69 °F 89 °F (2000)
Min Temperature 55 °F 51 °F 37 °F (1947)
Degree Days  
Heating Degree Days 5 6  
Month to date heating degree days 54 54  
Since 1 July heating degree days 4363 4568  
Cooling Degree Days 0 1  
Month to date cooling degree days 0 8  
Year to date cooling degree days 0 16  
Growing Degree Days 10 (Base 50)    
Moisture  
Dew Point 55 °F    
Average Humidity 79    
Maximum Humidity 93    
Minimum Humidity 64    
Precipitation  
Precipitation 2.28 in 0.11 in 2.28 in (2013)
Month to date precipitation 2.28 0.91  
Year to date precipitation 11.70 14.81  
Snow  
Snow 0.00 in 0.00 in - ()
Month to date snowfall 0.0 0.0  
Since 1 July snowfall 22.2 26.9  
Snow Depth 0.00 in    
Sea Level Pressure  
Sea Level Pressure 30.04 in    
Wind  
Wind Speed 10 mph (ENE)    
Max Wind Speed 21 mph    
Max Gust Speed 25 mph    
Visibility 6 miles    
Events Rain    
T = Trace of Precipitation, MM = Missing Value Source: NWS Daily Summary

Daily Weather History Graph

Daily Weather History Graph

Search for Another Location

Airport or City:

Trip Planner

Search our weather history database for the weather conditions in past years. The results will help you decide how hot, cold, wet, or windy it might be!

Date:

Astronomy

May. 08, 2013 Rise Set
Actual Time 5:45 AM EDT 7:59 PM EDT
Civil Twilight 5:14 AM EDT 8:29 PM EDT
Nautical Twilight 4:37 AM EDT 9:07 PM EDT
Astronomical Twilight 3:56 AM EDT 9:48 PM EDT
Moon 4:52 AM EDT (5/8) 6:54 PM EDT (5/8)
Length of Visible Light 15h 14m
Length of Day
14h 13m
Waning Crescent, 2% of the Moon is Illuminated
May 8
Waning Crescent
May 9
New
May 18
First Quarter
May 25
Full
May 31
Last Quarter

Hourly Weather History & Observations

Time (EDT) Temp. Dew Point Humidity Pressure Visibility Wind Dir Wind Speed Gust Speed Precip Events Conditions
12:51 AM 57.9 °F 54.0 °F 87% 30.11 in 10.0 mi NE 9.2 mph - N/A   Overcast
1:51 AM 57.0 °F 54.0 °F 89% 30.08 in 10.0 mi ENE 9.2 mph - 0.00 in   Mostly Cloudy
2:45 AM 55.4 °F 53.6 °F 94% 30.07 in 8.0 mi NE 10.4 mph - 0.00 in Rain Light Rain
2:51 AM 55.9 °F 54.0 °F 93% 30.07 in 7.0 mi NE 10.4 mph - 0.01 in Rain Light Rain
3:33 AM 57.2 °F 53.6 °F 88% 30.07 in 2.5 mi NE 6.9 mph - 0.09 in Rain Rain
3:35 AM 55.4 °F 53.6 °F 94% 30.07 in 2.0 mi NNE 8.1 mph - 0.10 in Rain Heavy Rain
3:37 AM 55.4 °F 53.6 °F 94% 30.07 in 2.0 mi NE 9.2 mph - 0.17 in Rain Heavy Rain
3:47 AM 57.2 °F 53.6 °F 88% 30.06 in 3.0 mi NE 8.1 mph - 0.21 in Rain Rain
3:51 AM 57.0 °F 54.0 °F 89% 30.06 in 3.0 mi NE 8.1 mph - 0.22 in Rain Rain
4:08 AM 55.4 °F 53.6 °F 94% 30.06 in 5.0 mi NE 9.2 mph - 0.04 in Rain Light Rain
4:25 AM 55.4 °F 53.6 °F 94% 30.06 in 4.0 mi NE 11.5 mph - 0.07 in Rain Rain
4:34 AM 55.4 °F 53.6 °F 94% 30.06 in 4.0 mi NE 12.7 mph - 0.10 in Rain Rain
4:41 AM 55.4 °F 53.6 °F 94% 30.05 in 5.0 mi NE 10.4 mph - 0.11 in Rain Rain
4:51 AM 55.9 °F 54.0 °F 93% 30.05 in 5.0 mi NE 11.5 mph - 0.13 in Rain Rain
5:28 AM 55.4 °F 53.6 °F 94% 30.06 in 4.0 mi NE 9.2 mph - 0.08 in Rain Heavy Rain
5:51 AM 55.9 °F 54.0 °F 93% 30.06 in 4.0 mi NE 12.7 mph - 0.14 in Rain Rain
6:01 AM 55.4 °F 53.6 °F 94% 30.07 in 4.0 mi NE 9.2 mph - 0.04 in Rain Rain
6:16 AM 55.4 °F 53.6 °F 94% 30.07 in 2.0 mi NE 9.2 mph - 0.11 in Rain Rain
6:47 AM 55.4 °F 53.6 °F 94% 30.08 in 1.5 mi NE 10.4 mph - 0.22 in Rain Rain
6:51 AM 55.9 °F 54.0 °F 93% 30.08 in 1.5 mi NE 11.5 mph - 0.24 in Rain Heavy Rain
7:28 AM 57.2 °F 55.4 °F 94% 30.07 in 1.8 mi NE 12.7 mph - 0.18 in Rain Rain
7:39 AM 57.2 °F 55.4 °F 94% 30.07 in 1.8 mi NE 16.1 mph - 0.21 in Rain Light Rain
7:51 AM 57.0 °F 54.0 °F 89% 30.06 in 1.8 mi NE 19.6 mph - 0.24 in Rain Rain
8:03 AM 57.2 °F 53.6 °F 88% 30.06 in 1.8 mi NE 17.3 mph - 0.03 in Rain Light Rain
8:14 AM 57.2 °F 53.6 °F 88% 30.09 in 0.8 mi Variable 5.8 mph 20.7 mph 0.04 in Rain Light Rain
8:51 AM 57.0 °F 54.0 °F 89% 30.09 in 2.0 mi North 10.4 mph 16.1 mph 0.64 in Rain Light Rain
8:57 AM 57.2 °F 53.6 °F 88% 30.08 in 4.0 mi North 4.6 mph - 0.02 in Rain Light Rain
9:04 AM 57.2 °F 55.4 °F 94% 30.08 in 10.0 mi NE 11.5 mph - 0.02 in   Overcast
9:15 AM 57.2 °F 55.4 °F 94% 30.07 in 10.0 mi NE 10.4 mph - 0.02 in   Overcast
9:51 AM 59.0 °F 55.0 °F 87% 30.06 in 10.0 mi NE 12.7 mph - 0.02 in   Overcast
10:41 AM 60.8 °F 55.4 °F 82% 30.07 in 10.0 mi NE 11.5 mph - N/A   Mostly Cloudy
10:51 AM 59.0 °F 55.0 °F 87% 30.07 in 10.0 mi ENE 9.2 mph - N/A   Overcast
11:51 AM 57.9 °F 55.0 °F 90% 30.03 in 6.0 mi NE 11.5 mph - 0.04 in Rain Light Rain
12:13 PM 59.0 °F 55.4 °F 88% 30.01 in 4.0 mi NE 11.5 mph - 0.02 in Rain Light Rain
12:37 PM 57.2 °F 55.4 °F 94% 30.01 in 2.0 mi ENE 16.1 mph - 0.05 in Rain Rain
12:40 PM 57.2 °F 55.4 °F 94% 30.01 in 0.8 mi ENE 17.3 mph - 0.08 in Rain Heavy Rain
12:51 PM 57.0 °F 55.0 °F 93% 30.01 in 0.8 mi NE 13.8 mph - 0.42 in Rain Heavy Rain
1:10 PM 57.2 °F 55.4 °F 94% 30.01 in 1.5 mi ENE 12.7 mph - 0.17 in Rain Rain
1:34 PM 60.8 °F 57.2 °F 88% 30.01 in 4.0 mi SSE 10.4 mph - 0.18 in Rain Light Rain
1:51 PM 61.0 °F 57.9 °F 90% 30.00 in 6.0 mi SSE 11.5 mph - 0.18 in   Overcast
2:41 PM 62.6 °F 59.0 °F 88% 30.00 in 2.5 mi South 12.7 mph 21.9 mph N/A   Overcast
2:51 PM 62.1 °F 59.0 °F 90% 29.99 in 2.5 mi SSE 10.4 mph - N/A   Overcast
3:43 PM 62.6 °F 59.0 °F 88% 29.99 in 2.5 mi SSE 8.1 mph - N/A   Overcast
3:51 PM 63.0 °F 59.0 °F 87% 29.99 in 2.5 mi SE 6.9 mph - N/A   Overcast
3:59 PM 64.4 °F 57.2 °F 77% 29.99 in 8.0 mi SE 9.2 mph - N/A   Overcast
4:22 PM 64.4 °F 57.2 °F 77% 29.98 in 10.0 mi SE 9.2 mph - N/A   Mostly Cloudy
4:33 PM 64.4 °F 57.2 °F 77% 29.98 in 10.0 mi SE 8.1 mph - N/A   Scattered Clouds
4:51 PM 64.9 °F 57.9 °F 78% 29.99 in 10.0 mi South 10.4 mph - N/A   Mostly Cloudy
5:51 PM 63.0 °F 55.9 °F 78% 29.99 in 10.0 mi SE 10.4 mph - N/A   Mostly Cloudy
6:51 PM 63.0 °F 53.1 °F 70% 29.99 in 10.0 mi SE 10.4 mph - N/A   Mostly Cloudy
7:51 PM 61.0 °F 51.1 °F 70% 30.00 in 10.0 mi SSE 8.1 mph - N/A   Scattered Clouds
8:51 PM 60.1 °F 48.9 °F 67% 30.02 in 10.0 mi SE 5.8 mph - N/A   Mostly Cloudy
9:51 PM 59.0 °F 48.9 °F 69% 30.03 in 10.0 mi Variable 5.8 mph - N/A   Mostly Cloudy
10:51 PM 59.0 °F 51.1 °F 75% 30.02 in 10.0 mi East 6.9 mph - N/A   Scattered Clouds
11:51 PM 55.9 °F 51.1 °F 84% 30.01 in 10.0 mi East 6.9 mph - N/A   Scattered Clouds